ON4LDM-13 Weather Reports


time (UTC)temp
C
wind
direction
speed
KPH
gust
KPH
rain 1hr
cm
rain 24hr
cm
rain mn
cm
humidity
%
barometer
mb
20260506045005 9 0 0.0 0.0 0.00 1.83 0.13 96 1005.4
20260506044505 9 0 0.0 0.0 0.00 1.83 0.13 96 1005.4
20260506044005 9 0 0.0 0.0 0.00 1.83 0.13 96 1005.4
20260506043505 9 0 0.0 0.0 0.00 1.83 0.13 96 1005.4
20260506043005 9 0 0.0 0.0 0.00 1.83 0.13 96 1005.4
20260506042505 9 0 0.0 0.0 0.00 1.83 0.13 96 1005.3
20260506042005 10 0 0.0 0.0 0.00 1.83 0.13 96 1005.4
20260506041505 10 0 0.0 0.0 0.00 1.83 0.13 96 1005.5
20260506041005 10 0 0.0 0.0 0.00 1.83 0.13 96 1005.5
20260506040504 10 0 0.0 0.0 0.00 1.83 0.13 96 1005.5
20260506035505 10 0 0.0 0.0 0.00 1.83 0.13 96 1005.6
20260506035005 10 0 0.0 0.0 0.00 1.83 0.13 96 1005.6
20260506034504 10 0 0.0 0.0 0.00 1.83 0.13 96 1005.7
20260506033005 10 0 0.0 0.0 0.00 1.83 0.13 96 1005.6
20260506032505 10 0 0.0 0.0 0.00 1.83 0.13 96 1005.6
20260506031505 10 0 0.0 0.0 0.00 1.83 0.13 96 1005.7
20260506031005 10 0 0.0 0.0 0.00 1.83 0.13 96 1005.7
20260506030505 10 0 0.0 0.0 0.00 1.83 0.13 96 1005.8
20260506030005 10 0 0.0 0.0 0.00 1.83 0.13 96 1005.9
20260506025505 10 0 0.0 0.0 0.00 1.83 0.13 96 1005.8
20260506025005 10 0 0.0 0.0 0.00 1.83 0.13 95 1005.9
20260506024504 10 240 0.0 1.6 0.00 1.83 0.13 95 1005.9
20260506024005 10 212 0.0 4.8 0.00 1.83 0.13 95 1005.9
20260506023505 10 210 1.6 8.0 0.00 1.83 0.13 95 1005.9
20260506023005 10 210 3.2 8.0 0.00 1.83 0.13 95 1005.9
20260506022505 10 212 3.2 8.0 0.00 1.83 0.13 95 1005.9
20260506021505 10 199 1.6 8.0 0.00 1.83 0.13 95 1005.8
20260506021005 11 213 3.2 12.9 0.00 1.83 0.13 95 1005.8
20260506020505 11 211 3.2 12.9 0.00 1.83 0.13 95 1005.8
20260506020005 11 211 4.8 12.9 0.00 1.83 0.13 95 1005.8
20260506015004 11 200 3.2 14.5 0.00 1.83 0.13 96 1005.8
20260506014504 11 207 4.8 14.5 0.00 1.83 0.13 96 1005.8
20260506014005 11 210 4.8 14.5 0.00 1.83 0.13 96 1005.8
20260506013505 11 198 4.8 16.1 0.00 1.83 0.13 96 1005.8
20260506012505 11 192 4.8 14.5 0.00 1.83 0.13 96 1005.8
20260506012005 11 200 4.8 12.9 0.03 1.83 0.13 96 1005.8
20260506011504 11 196 4.8 12.9 0.05 1.83 0.13 96 1005.9
20260506011005 11 191 4.8 12.9 0.08 1.83 0.13 96 1005.7
20260506010505 11 182 4.8 22.5 0.08 1.83 0.13 96 1005.9
20260506010005 11 175 4.8 22.5 0.08 1.83 0.13 96 1005.9
20260506005505 11 172 4.8 12.9 0.08 1.83 0.13 96 1005.9
20260506005005 11 170 4.8 14.5 0.08 1.83 0.13 96 1006.0
20260506004505 11 170 4.8 14.5 0.08 1.83 0.13 96 1006.0
20260506004005 11 172 4.8 12.9 0.08 1.83 0.13 96 1006.0
20260506003505 11 177 3.2 11.3 0.08 1.83 0.13 96 1006.0
20260506003005 11 181 3.2 9.7 0.08 1.83 0.13 96 1006.1
20260506002504 11 176 3.2 9.7 0.05 1.80 0.10 96 1006.1
20260506002005 11 171 3.2 9.7 0.08 1.80 0.10 96 1006.1
20260506001005 11 170 3.2 8.0 0.03 1.75 0.05 96 1006.2
20260506000505 11 174 3.2 8.0 0.03 1.75 0.05 96 1006.3
20260506000005 11 184 3.2 8.0 0.05 1.75 0.05 96 1006.3
20260505235505 11 188 3.2 8.0 0.05 1.75 0.05 96 1006.4
20260505235005 11 176 1.6 8.0 0.05 1.75 0.05 96 1006.4
20260505234505 11 162 0.0 6.4 0.05 1.75 0.05 97 1006.5
20260505234005 11 166 1.6 4.8 0.05 1.75 0.05 97 1006.5
20260505233505 11 168 1.6 4.8 0.05 1.75 0.05 97 1006.5
20260505233005 11 164 1.6 3.2 0.05 1.75 0.05 97 1006.5
20260505232505 11 167 0.0 3.2 0.05 1.75 0.05 96 1006.5
20260505232005 11 143 0.0 3.2 0.03 1.73 0.03 96 1006.5
20260505231505 11 141 0.0 3.2 0.03 1.73 0.03 96 1006.6
20260505231005 11 177 0.0 3.2 0.03 1.73 0.03 97 1006.6
20260505230504 11 201 0.0 3.2 0.03 1.73 0.03 97 1006.6
20260505230004 11 192 0.0 3.2 0.00 1.70 0.00 97 1006.6
20260505225004 11 174 0.0 4.8 0.00 1.70 0.00 97 1006.7
20260505224005 11 152 0.0 6.4 0.00 1.70 0.00 96 1006.8
20260505223504 11 156 0.0 6.4 0.00 1.70 0.00 96 1006.8
20260505223004 11 157 0.0 6.4 0.00 1.70 0.00 96 1006.8
20260505222005 11 0 0.0 0.0 0.00 1.70 0.00 96 1006.8
20260505221504 11 0 0.0 0.0 0.00 1.70 0.00 96 1006.9
20260505220505 11 0 0.0 0.0 0.00 1.70 0.00 96 1007.0
20260505220007 11 0 0.0 0.0 0.00 1.70 0.00 96 1007.0
20260505215505 11 0 0.0 0.0 0.00 1.70 1.70 96 1007.1
20260505215004 11 0 0.0 0.0 0.00 1.70 1.70 96 1007.1
20260505214505 11 0 0.0 0.0 0.00 1.70 1.70 96 1007.1
20260505214005 11 0 0.0 0.0 0.00 1.70 1.70 96 1007.2
20260505213505 11 0 0.0 0.0 0.03 1.70 1.70 96 1007.2
20260505213005 11 0 0.0 0.0 0.05 1.70 1.70 96 1007.2
20260505212505 11 42 0.0 1.6 0.05 1.70 1.70 96 1007.2
20260505211505 11 43 0.0 1.6 0.08 1.70 1.70 96 1007.2
20260505211004 11 0 0.0 0.0 0.08 1.70 1.70 96 1007.3
20260505210505 11 0 0.0 0.0 0.10 1.70 1.70 96 1007.3
20260505210006 11 0 0.0 0.0 0.10 1.70 1.70 96 1007.4
20260505205504 11 0 0.0 0.0 0.13 1.70 1.70 96 1007.4
20260505205005 11 0 0.0 0.0 0.13 1.70 1.70 96 1007.4
20260505204504 11 0 0.0 0.0 0.15 1.70 1.70 96 1007.4
20260505204005 11 0 0.0 0.0 0.15 1.70 1.70 96 1007.6
20260505203505 11 0 0.0 0.0 0.15 1.68 1.68 96 1007.6
20260505203004 11 0 0.0 0.0 0.15 1.65 1.65 96 1007.6
20260505202505 11 0 0.0 0.0 0.15 1.65 1.65 96 1007.5
20260505201505 11 42 0.0 1.6 0.15 1.63 1.63 96 1007.4
20260505201005 11 43 0.0 1.6 0.15 1.63 1.63 95 1007.4
20260505195505 11 55 0.0 1.6 0.18 1.57 1.57 95 1007.4
20260505195004 11 0 0.0 0.0 0.20 1.57 1.57 95 1007.4
20260505194505 11 0 0.0 0.0 0.23 1.55 1.55 95 1007.5
20260505193505 11 0 0.0 0.0 0.28 1.55 1.55 95 1007.3
20260505193005 11 0 0.0 0.0 0.28 1.52 1.52 95 1007.2
20260505192504 11 0 0.0 0.0 0.28 1.50 1.50 95 1007.3
20260505192005 11 0 0.0 0.0 0.33 1.47 1.47 95 1007.3
20260505191504 11 0 0.0 0.0 0.43 1.47 1.47 95 1007.3
20260505191005 11 359 0.0 1.6 0.43 1.45 1.45 95 1007.4
20260505190505 11 359 0.0 1.6 0.43 1.45 1.45 95 1007.3
20260505185004 11 0 0.0 0.0 0.43 1.37 1.37 94 1007.2
20260505184505 11 0 0.0 0.0 0.38 1.35 1.35 94 1007.3
20260505184005 12 0 0.0 0.0 0.33 1.27 1.27 94 1007.3
20260505183504 12 0 0.0 0.0 0.33 1.27 1.27 94 1007.2
20260505183005 12 34 0.0 1.6 0.30 1.24 1.24 94 1007.2
20260505182505 12 82 0.0 3.2 0.28 1.22 1.22 94 1007.2
20260505182004 12 90 0.0 3.2 0.20 1.14 1.14 94 1007.3
20260505181504 12 0 0.0 0.0 0.10 1.04 1.04 94 1007.3
20260505181005 12 0 0.0 0.0 0.08 1.02 1.02 94 1007.3
20260505180504 12 0 0.0 0.0 0.05 0.99 0.99 94 1007.4
20260505180004 12 0 0.0 0.0 0.05 0.99 0.99 94 1007.3
20260505175505 12 0 0.0 0.0 0.05 0.99 0.99 94 1007.3
20260505175005 12 0 0.0 0.0 0.03 0.97 0.97 94 1007.4
20260505174504 12 0 0.0 0.0 0.03 0.97 0.97 94 1007.4
20260505174004 12 0 0.0 0.0 0.00 0.94 0.94 94 1007.4
20260505173505 12 0 0.0 0.0 0.03 0.94 0.94 93 1007.4
20260505172505 12 0 0.0 0.0 0.03 0.94 0.94 93 1007.4
20260505172005 12 0 0.0 0.0 0.03 0.94 0.94 93 1007.5
20260505171505 12 0 0.0 0.0 0.03 0.94 0.94 93 1007.5
20260505171005 12 0 0.0 0.0 0.03 0.94 0.94 93 1007.5
20260505170505 12 0 0.0 0.0 0.05 0.94 0.94 93 1007.5
20260505170005 12 0 0.0 0.0 0.05 0.94 0.94 93 1007.5
20260505165505 12 0 0.0 0.0 0.05 0.94 0.94 93 1007.5
20260505165005 12 0 0.0 0.0 0.05 0.94 0.94 93 1007.6
20260505164505 12 0 0.0 0.0 0.05 0.94 0.94 93 1007.6
20260505164005 12 0 0.0 0.0 0.05 0.94 0.94 93 1007.6
20260505163505 12 0 0.0 0.0 0.05 0.91 0.91 93 1007.5
20260505163006 12 0 0.0 0.0 0.05 0.91 0.91 93 1007.6
20260505162505 12 0 0.0 0.0 0.05 0.91 0.91 93 1007.7
20260505161504 12 0 0.0 0.0 0.05 0.91 0.91 93 1007.6
20260505161004 12 0 0.0 0.0 0.08 0.91 0.91 92 1007.7
20260505160506 12 0 0.0 0.0 0.05 0.89 0.89 92 1007.7
20260505153004 12 229 0.0 3.2 0.05 0.91 0.86 93 1008.0
20260505152505 12 230 0.0 3.2 0.05 0.91 0.86 93 1008.0
20260505152005 12 0 0.0 0.0 0.05 0.94 0.86 93 1008.0
20260505151504 12 0 0.0 0.0 0.08 0.97 0.86 93 1008.0
20260505151005 12 230 0.0 1.6 0.05 0.99 0.84 93 1008.0
20260505150504 12 222 0.0 3.2 0.05 1.04 0.84 93 1008.1
20260505140505 12 210 0.0 3.2 0.05 1.02 0.79 93 1008.3
20260505125004 13 0 0.0 0.0 0.61 0.91 0.64 92 1008.6
20260505124505 13 0 0.0 0.0 0.61 0.89 0.61 92 1008.7
20260505123505 13 0 0.0 0.0 0.48 0.76 0.48 91 1008.8
20260505123005 13 0 0.0 0.0 0.33 0.61 0.33 90 1008.8
20260505122505 13 0 0.0 0.0 0.30 0.58 0.30 91 1008.7
20260505121505 13 192 1.6 4.8 0.23 0.51 0.23 90 1008.7
20260505120005 14 170 0.0 1.6 0.10 0.38 0.10 88 1008.8
20260505114505 14 183 0.0 3.2 0.03 0.30 0.03 85 1008.7
20260505114005 14 210 0.0 3.2 0.00 0.28 0.00 84 1008.8
20260505113504 14 214 0.0 3.2 0.00 0.28 0.00 83 1008.8
20260505113005 15 213 1.6 3.2 0.00 0.28 0.00 82 1008.8
20260505112505 15 197 1.6 4.8 0.00 0.28 0.00 82 1008.8
20260505112004 15 203 1.6 4.8 0.00 0.28 0.00 81 1008.7
20260505111505 15 214 0.0 4.8 0.00 0.28 0.00 81 1008.8
20260505111004 15 0 0.0 0.0 0.00 0.28 0.00 82 1008.7
20260505110504 15 120 0.0 1.6 0.00 0.30 0.00 80 1008.9
20260505102005 15 160 1.6 4.8 0.00 0.33 0.00 79 1009.2
20260505101505 15 111 1.6 4.8 0.00 0.36 0.00 80 1009.2
20260505100504 15 78 1.6 4.8 0.00 0.38 0.00 82 1009.4
20260505095505 15 90 1.6 4.8 0.00 0.41 0.00 83 1009.3
20260505095004 14 96 3.2 8.0 0.00 0.41 0.00 83 1009.3
20260505094505 14 104 1.6 8.0 0.00 0.43 0.00 83 1009.3
20260505093505 14 74 3.2 8.0 0.00 0.43 0.00 83 1009.3
20260505093005 14 76 3.2 8.0 0.00 0.43 0.00 82 1009.4
20260505092505 15 75 1.6 4.8 0.00 0.43 0.00 82 1009.4
20260505092005 15 87 0.0 4.8 0.00 0.43 0.00 83 1009.3
20260505091505 15 82 1.6 6.4 0.00 0.43 0.00 83 1009.4
20260505091005 14 82 1.6 6.4 0.00 0.43 0.00 82 1009.5
20260505090505 14 86 1.6 6.4 0.00 0.43 0.00 82 1009.5
20260505090005 14 76 1.6 4.8 0.00 0.43 0.00 83 1009.5
20260505085504 14 104 1.6 9.7 0.00 0.43 0.00 83 1009.5
20260505085004 14 161 1.6 9.7 0.00 0.43 0.00 84 1009.5
20260505084504 14 131 1.6 9.7 0.00 0.43 0.00 84 1009.5
20260505084005 14 103 1.6 8.0 0.00 0.43 0.00 86 1009.4
20260505083505 14 118 1.6 4.8 0.00 0.43 0.00 85 1009.5
20260505083005 14 94 1.6 11.3 0.00 0.43 0.00 86 1009.6
20260505082505 14 118 1.6 11.3 0.00 0.43 0.00 87 1009.5
20260505082004 13 91 3.2 9.7 0.00 0.43 0.00 86 1009.7
20260505081004 14 90 3.2 8.0 0.00 0.43 0.00 85 1009.7
20260505080505 14 152 3.2 14.5 0.00 0.43 0.00 86 1009.7
20260505080006 14 173 3.2 14.5 0.00 0.43 0.00 87 1009.7
20260505075504 14 171 3.2 9.7 0.00 0.43 0.00 87 1009.7
20260505075005 13 152 1.6 8.0 0.00 0.43 0.00 88 1009.8
20260505074505 13 79 1.6 6.4 0.00 0.43 0.00 90 1009.8
20260505074004 13 81 1.6 6.4 0.00 0.43 0.00 90 1009.9
20260505073505 13 96 1.6 6.4 0.00 0.43 0.00 91 1009.9
20260505073004 13 107 0.0 6.4 0.00 0.43 0.00 93 1009.9
20260505072504 13 82 1.6 4.8 0.00 0.43 0.00 94 1010.0
20260505071505 12 110 0.0 6.4 0.00 0.43 0.00 95 1010.2
20260505070505 12 80 1.6 6.4 0.00 0.43 0.00 97 1010.2
20260505070005 12 85 1.6 6.4 0.00 0.43 0.00 97 1010.2
20260505065504 12 86 1.6 6.4 0.00 0.43 0.00 97 1010.2
20260505065004 12 79 1.6 6.4 0.00 0.43 0.00 98 1010.2
20260505064504 12 80 1.6 6.4 0.00 0.43 0.00 98 1010.2
20260505064004 11 81 1.6 6.4 0.00 0.43 0.00 97 1010.2
20260505063504 11 89 0.0 3.2 0.00 0.43 0.00 98 1010.2
20260505063004 11 0 0.0 0.0 0.00 0.43 0.00 98 1010.3
20260505062505 11 0 0.0 0.0 0.00 0.43 0.00 97 1010.3
20260505061504 11 0 0.0 0.0 0.00 0.43 0.00 97 1010.2
20260505060505 11 0 0.0 0.0 0.00 0.43 0.00 97 1010.2
20260505055505 11 0 0.0 0.0 0.00 0.43 0.00 97 1010.2
20260505055004 11 0 0.0 0.0 0.00 0.43 0.00 97 1010.2
20260505053505 10 0 0.0 0.0 0.00 0.43 0.00 97 1010.3
20260505053005 10 0 0.0 0.0 0.00 0.43 0.00 97 1010.3
20260505052504 10 0 0.0 0.0 0.00 0.43 0.00 97 1010.3
20260505052005 10 0 0.0 0.0 0.00 0.43 0.00 97 1010.4
20260505051504 10 0 0.0 0.0 0.00 0.43 0.00 97 1010.3
20260505051004 10 0 0.0 0.0 0.00 0.43 0.00 97 1010.3
20260505050505 10 0 0.0 0.0 0.00 0.43 0.00 97 1010.3